TimeEDT,TemperatureF,Dew PointF,Humidity,Sea Level PressureIn,VisibilityMPH,Wind Direction,Wind SpeedMPH,Gust SpeedMPH,PrecipitationIn,Events,Conditions,WindDirDegrees,DateUTC
12:54 AM,66.0,61.0,84,29.92,10.0,SE,4.6,-,N/A,,Overcast,130,2013-08-06 04:54:00
1:54 AM,66.0,62.1,87,29.91,10.0,ESE,3.5,-,N/A,,Overcast,120,2013-08-06 05:54:00
2:54 AM,66.9,62.1,84,29.92,10.0,Calm,Calm,-,N/A,,Overcast,0,2013-08-06 06:54:00
3:54 AM,66.9,62.1,84,29.90,10.0,SSE,3.5,-,N/A,,Overcast,160,2013-08-06 07:54:00
4:37 AM,66.2,62.6,88,29.90,10.0,South,3.5,-,N/A,,Overcast,190,2013-08-06 08:37:00
4:54 AM,66.9,62.1,84,29.89,10.0,South,3.5,-,N/A,,Overcast,170,2013-08-06 08:54:00
5:54 AM,66.9,63.0,87,29.88,10.0,South,4.6,-,N/A,,Overcast,190,2013-08-06 09:54:00
6:54 AM,66.9,64.0,90,29.91,10.0,Calm,Calm,-,N/A,,Overcast,0,2013-08-06 10:54:00
7:54 AM,68.0,64.0,87,29.92,10.0,Calm,Calm,-,N/A,,Overcast,0,2013-08-06 11:54:00
8:54 AM,69.1,64.9,87,29.93,10.0,WSW,4.6,-,N/A,,Overcast,240,2013-08-06 12:54:00
9:54 AM,69.1,64.0,84,29.93,9.0,Calm,Calm,-,N/A,,Overcast,0,2013-08-06 13:54:00
10:54 AM,71.1,66.0,84,29.92,9.0,SSE,5.8,-,N/A,,Overcast,160,2013-08-06 14:54:00
11:54 AM,70.0,66.0,87,29.94,9.0,SSW,6.9,-,N/A,,Overcast,210,2013-08-06 15:54:00
12:54 PM,71.1,66.0,84,29.94,8.0,Calm,Calm,-,N/A,,Overcast,0,2013-08-06 16:54:00
1:54 PM,73.0,66.9,81,29.92,8.0,WSW,4.6,-,N/A,,Overcast,240,2013-08-06 17:54:00
2:54 PM,73.9,68.0,82,29.91,9.0,South,3.5,-,N/A,,Overcast,170,2013-08-06 18:54:00
3:54 PM,75.9,68.0,76,29.90,10.0,Variable,3.5,-,N/A,,Overcast,0,2013-08-06 19:54:00
4:54 PM,79.0,68.0,69,29.89,10.0,Variable,3.5,-,N/A,,Mostly Cloudy,0,2013-08-06 20:54:00
5:08 PM,78.8,69.8,74,29.90,10.0,Variable,3.5,-,N/A,,Mostly Cloudy,0,2013-08-06 21:08:00
5:54 PM,79.0,68.0,69,29.88,10.0,Variable,3.5,-,N/A,,Partly Cloudy,0,2013-08-06 21:54:00
6:54 PM,79.0,69.1,72,29.88,10.0,SSE,5.8,-,N/A,,Partly Cloudy,160,2013-08-06 22:54:00
7:54 PM,78.1,69.1,74,29.88,10.0,South,3.5,-,N/A,,Partly Cloudy,170,2013-08-06 23:54:00
8:54 PM,75.9,70.0,82,29.88,10.0,South,3.5,-,N/A,,Partly Cloudy,180,2013-08-07 00:54:00
9:54 PM,73.9,70.0,87,29.88,10.0,Calm,Calm,-,N/A,,Clear,0,2013-08-07 01:54:00
10:54 PM,73.0,70.0,90,29.89,9.0,Calm,Calm,-,N/A,,Clear,0,2013-08-07 02:54:00
11:54 PM,70.0,68.0,93,29.91,7.0,Calm,Calm,-,N/A,,Scattered Clouds,0,2013-08-07 03:54:00